AAL2350 KDFW-MMMX

Flight info

Callsign AAL2350
Flight time 2h 24m
Altitude 35000
Route NELYN6 SAT DCT REX UJ53 TAM UT100 ENAGA ENAGA3A
Aircraft A21N/M-SDE2E3FGHIRWXY/LB1

Departure

Time 2026-05-07 21:56
Airport Dallas Fort Worth International Airport (KDFW)

Arrival

Time 2026-05-08 00:20
Airport Mexico City Benito Juárez International Airport (MMMX)
Time Latitude Longitude Altitude Speed Heading
2026-05-07 21:44 32.89713 -97.04579 619 ft 0 kts 91°
2026-05-07 21:45 32.89713 -97.04591 619 ft 4 kts 91°
2026-05-07 21:45 32.89714 -97.04623 626 ft 4 kts 97°
2026-05-07 21:45 32.89721 -97.04653 632 ft 4 kts 129°
2026-05-07 21:46 32.89740 -97.04668 629 ft 2 kts 179°
2026-05-07 21:46 32.89742 -97.04668 627 ft 0 kts 181°
2026-05-07 21:48 32.89721 -97.04668 632 ft 3 kts 181°
2026-05-07 21:49 32.89697 -97.04669 630 ft 4 kts 181°
2026-05-07 21:49 32.89649 -97.04682 624 ft 8 kts 203°
2026-05-07 21:49 32.89600 -97.04717 627 ft 8 kts 213°
2026-05-07 21:49 32.89554 -97.04754 623 ft 8 kts 213°
2026-05-07 21:50 32.89494 -97.04769 623 ft 11 kts 179°
2026-05-07 21:50 32.89402 -97.04767 625 ft 14 kts 178°
2026-05-07 21:50 32.89305 -97.04768 625 ft 14 kts 181°
2026-05-07 21:50 32.89242 -97.04769 624 ft 15 kts 181°
2026-05-07 21:51 32.89118 -97.04770 625 ft 18 kts 180°
2026-05-07 21:51 32.88994 -97.04771 625 ft 18 kts 180°
2026-05-07 21:51 32.88874 -97.04767 625 ft 17 kts 176°
2026-05-07 21:51 32.88760 -97.04771 625 ft 16 kts 185°
2026-05-07 21:52 32.88651 -97.04769 629 ft 15 kts 178°
2026-05-07 21:52 32.88546 -97.04773 625 ft 15 kts 182°
2026-05-07 21:52 32.88449 -97.04807 625 ft 14 kts 189°
2026-05-07 21:52 32.88352 -97.04808 625 ft 14 kts 180°
2026-05-07 21:53 32.88258 -97.04809 626 ft 13 kts 180°
2026-05-07 21:53 32.88167 -97.04810 625 ft 13 kts 180°
2026-05-07 21:53 32.88078 -97.04810 624 ft 13 kts 180°
2026-05-07 21:53 32.87992 -97.04810 625 ft 12 kts 180°
2026-05-07 21:54 32.87914 -97.04832 629 ft 11 kts 229°
2026-05-07 21:54 32.87908 -97.04918 626 ft 10 kts 270°
2026-05-07 21:54 32.87907 -97.05002 626 ft 10 kts 270°
2026-05-07 21:54 32.87917 -97.05081 632 ft 9 kts 307°
2026-05-07 21:55 32.87972 -97.05093 623 ft 8 kts
2026-05-07 21:55 32.88030 -97.05091 624 ft 11 kts
2026-05-07 21:55 32.88264 -97.05087 625 ft 59 kts
2026-05-07 21:55 32.88837 -97.05085 625 ft 107 kts
2026-05-07 21:56 32.89760 -97.05079 626 ft 156 kts
2026-05-07 21:56 32.90930 -97.05064 804 ft 171 kts 359°
2026-05-07 21:56 32.92105 -97.05075 1285 ft 167 kts 358°
2026-05-07 21:56 32.93273 -97.05107 1731 ft 167 kts 359°
2026-05-07 21:57 32.94493 -97.05174 1942 ft 188 kts 353°
2026-05-07 21:57 32.95824 -97.05552 2256 ft 205 kts 340°
2026-05-07 21:57 32.97217 -97.06222 2506 ft 226 kts 340°
2026-05-07 21:57 32.98778 -97.06931 2650 ft 255 kts 339°
2026-05-07 21:58 33.00349 -97.08052 2938 ft 273 kts 314°
2026-05-07 21:58 33.01287 -97.10020 3577 ft 280 kts 282°
2026-05-07 21:58 33.01295 -97.12346 4332 ft 283 kts 264°
2026-05-07 21:58 33.01039 -97.14633 5369 ft 273 kts 264°
2026-05-07 21:59 33.00786 -97.16831 6418 ft 263 kts 263°
2026-05-07 21:59 33.00539 -97.18960 7313 ft 257 kts 263°
2026-05-07 21:59 33.00308 -97.21045 8029 ft 257 kts 263°
2026-05-07 21:59 32.99934 -97.23140 8712 ft 260 kts 251°
2026-05-07 22:00 32.99038 -97.25021 9421 ft 264 kts 233°
2026-05-07 22:00 32.97769 -97.26611 10142 ft 266 kts 228°
2026-05-07 22:00 32.96331 -97.28106 10520 ft 284 kts 219°
2026-05-07 22:00 32.94474 -97.29139 10753 ft 311 kts 198°
2026-05-07 22:01 32.92235 -97.29351 10976 ft 334 kts 184°
2026-05-07 22:01 32.89859 -97.29230 11207 ft 349 kts 182°
2026-05-07 22:01 32.87395 -97.29056 11503 ft 359 kts 182°
2026-05-07 22:01 32.84878 -97.28886 11954 ft 365 kts 182°
2026-05-07 22:02 32.82333 -97.28727 12448 ft 367 kts 183°
2026-05-07 22:02 32.79771 -97.28576 12982 ft 370 kts 183°
2026-05-07 22:02 32.77188 -97.28287 13535 ft 376 kts 178°
2026-05-07 22:02 32.74586 -97.27806 14074 ft 381 kts 176°
2026-05-07 22:03 32.71964 -97.27278 14585 ft 384 kts 176°
2026-05-07 22:03 32.69355 -97.26746 15119 ft 386 kts 176°
2026-05-07 22:03 32.66699 -97.26205 15616 ft 389 kts 176°
2026-05-07 22:03 32.64017 -97.25662 16095 ft 392 kts 176°
2026-05-07 22:04 32.61323 -97.25120 16609 ft 394 kts 176°
2026-05-07 22:04 32.58615 -97.24576 17115 ft 396 kts 176°
2026-05-07 22:04 32.55889 -97.24031 17592 ft 398 kts 176°
2026-05-07 22:04 32.53146 -97.23483 18069 ft 401 kts 176°
2026-05-07 22:05 32.50386 -97.22933 18514 ft 403 kts 176°
2026-05-07 22:05 32.47614 -97.22381 18907 ft 405 kts 177°
2026-05-07 22:05 32.44821 -97.21825 19274 ft 408 kts 177°
2026-05-07 22:05 32.42008 -97.21267 19643 ft 411 kts 177°
2026-05-07 22:06 32.39174 -97.20704 20001 ft 414 kts 177°
2026-05-07 22:06 32.36326 -97.20138 20355 ft 417 kts 177°
2026-05-07 22:06 32.33454 -97.19568 20757 ft 419 kts 178°
2026-05-07 22:06 32.30566 -97.19030 21135 ft 420 kts 180°
2026-05-07 22:07 32.27663 -97.18824 21502 ft 415 kts 188°
2026-05-07 22:07 32.24796 -97.19049 21886 ft 413 kts 193°
2026-05-07 22:07 32.21943 -97.19420 22266 ft 414 kts 194°
2026-05-07 22:07 32.19070 -97.19817 22648 ft 416 kts 194°
2026-05-07 22:08 32.16184 -97.20215 22999 ft 418 kts 194°
2026-05-07 22:08 32.13324 -97.20606 23305 ft 421 kts 194°
2026-05-07 22:08 32.10387 -97.21005 23474 ft 428 kts 194°
2026-05-07 22:08 32.07421 -97.21404 23777 ft 430 kts 194°
2026-05-07 22:09 32.04448 -97.21801 24125 ft 430 kts 194°
2026-05-07 22:09 32.01475 -97.22197 24484 ft 429 kts 194°
2026-05-07 22:09 31.98505 -97.22593 24818 ft 429 kts 194°
2026-05-07 22:09 31.95539 -97.22988 25134 ft 430 kts 193°
2026-05-07 22:10 31.92564 -97.23385 25439 ft 430 kts 193°
2026-05-07 22:10 31.89587 -97.23781 25730 ft 431 kts 193°
2026-05-07 22:10 31.86609 -97.24178 25996 ft 431 kts 193°
2026-05-07 22:10 31.83636 -97.24573 26436 ft 427 kts 193°
2026-05-07 22:11 31.80685 -97.24964 26737 ft 427 kts 193°
2026-05-07 22:11 31.77728 -97.25358 26951 ft 429 kts 193°
2026-05-07 22:11 31.74754 -97.25755 27171 ft 430 kts 193°
2026-05-07 22:11 31.71772 -97.26151 27396 ft 432 kts 193°
2026-05-07 22:12 31.68790 -97.26560 27628 ft 431 kts 195°
2026-05-07 22:12 31.65871 -97.27240 27927 ft 423 kts 202°
2026-05-07 22:12 31.63111 -97.28338 28291 ft 416 kts 207°
2026-05-07 22:12 31.60429 -97.29582 28653 ft 413 kts 208°
2026-05-07 22:13 31.57775 -97.30843 28964 ft 411 kts 208°
2026-05-07 22:13 31.55134 -97.32098 29350 ft 408 kts 208°
2026-05-07 22:13 31.52508 -97.33342 29641 ft 407 kts 208°
2026-05-07 22:13 31.49880 -97.34584 29921 ft 406 kts 208°
2026-05-07 22:14 31.47294 -97.35805 30190 ft 406 kts 208°
2026-05-07 22:14 31.44674 -97.37039 30408 ft 405 kts 209°
2026-05-07 22:14 31.42065 -97.38267 30617 ft 405 kts 209°
2026-05-07 22:14 31.39451 -97.39495 30828 ft 404 kts 209°
2026-05-07 22:15 31.36843 -97.40720 31039 ft 403 kts 209°
2026-05-07 22:15 31.34242 -97.41940 31261 ft 403 kts 209°
2026-05-07 22:15 31.31644 -97.43159 31462 ft 402 kts 209°
2026-05-07 22:15 31.29048 -97.44375 31680 ft 401 kts 209°
2026-05-07 22:16 31.26461 -97.45587 31932 ft 400 kts 209°
2026-05-07 22:16 31.23882 -97.46795 32154 ft 399 kts 209°
2026-05-07 22:16 31.21298 -97.48003 32357 ft 399 kts 209°
2026-05-07 22:16 31.18719 -97.49208 32559 ft 399 kts 209°
2026-05-07 22:17 31.16149 -97.50409 32772 ft 398 kts 210°
2026-05-07 22:17 31.13604 -97.51597 32959 ft 398 kts 210°
2026-05-07 22:17 31.11033 -97.52798 33141 ft 398 kts 210°
2026-05-07 22:17 31.08465 -97.53996 33312 ft 398 kts 210°
2026-05-07 22:18 31.05892 -97.55195 33498 ft 397 kts 210°
2026-05-07 22:18 31.00770 -97.57580 33869 ft 395 kts 210°
2026-05-07 22:18 30.98237 -97.58756 34192 ft 390 kts 210°
2026-05-07 22:19 30.95718 -97.59926 34363 ft 389 kts 210°
2026-05-07 22:19 30.93204 -97.61096 34501 ft 389 kts 210°
2026-05-07 22:19 30.90687 -97.62266 34592 ft 389 kts 210°
2026-05-07 22:20 30.85640 -97.64610 34765 ft 391 kts 210°
2026-05-07 22:20 30.80622 -97.66937 34952 ft 391 kts 210°
2026-05-07 22:21 30.75553 -97.69281 35098 ft 393 kts 209°
2026-05-07 22:21 30.70473 -97.71626 35096 ft 392 kts 210°
2026-05-07 22:22 30.65399 -97.73968 35100 ft 391 kts 210°
2026-05-07 22:22 30.60337 -97.76305 35099 ft 391 kts 210°
2026-05-07 22:23 30.55545 -97.79115 35097 ft 382 kts 218°
2026-05-07 22:23 30.51066 -97.82428 35115 ft 382 kts 219°
2026-05-07 22:24 30.50306 -97.82995 35115 ft 382 kts 219°
2026-05-07 22:24 30.47313 -97.85226 35116 ft 382 kts 219°
2026-05-07 22:25 30.42835 -97.88549 35117 ft 382 kts 219°
2026-05-07 22:25 30.38356 -97.91869 35112 ft 382 kts 219°
2026-05-07 22:26 30.33877 -97.95182 35103 ft 382 kts 219°
2026-05-07 22:26 30.29400 -97.98491 35087 ft 382 kts 219°
2026-05-07 22:27 30.24909 -98.01806 35079 ft 383 kts 219°
2026-05-07 22:27 30.20440 -98.05100 35062 ft 383 kts 219°
2026-05-07 22:28 30.15949 -98.08407 35064 ft 383 kts 219°
2026-05-07 22:28 30.13748 -98.10027 35048 ft 383 kts 218°
2026-05-07 22:29 30.09258 -98.13328 35059 ft 382 kts 218°
2026-05-07 22:29 30.05492 -98.16094 35060 ft 382 kts 218°
2026-05-07 22:30 30.01005 -98.19386 35057 ft 382 kts 218°
2026-05-07 22:30 29.96520 -98.22674 35053 ft 382 kts 218°
2026-05-07 22:31 29.92038 -98.25955 35057 ft 382 kts 218°
2026-05-07 22:31 29.87545 -98.29241 35049 ft 382 kts 218°
2026-05-07 22:32 29.83085 -98.32499 35046 ft 383 kts 218°
2026-05-07 22:32 29.78564 -98.35800 35044 ft 385 kts 218°
2026-05-07 22:33 29.74050 -98.39090 35039 ft 384 kts 218°
2026-05-07 22:33 29.69523 -98.42386 35036 ft 384 kts 217°
2026-05-07 22:34 29.64646 -98.45038 35050 ft 395 kts 203°
2026-05-07 22:34 29.59071 -98.45819 35056 ft 413 kts 188°
2026-05-07 22:35 29.53321 -98.45534 35048 ft 418 kts 186°
2026-05-07 22:35 29.47501 -98.45075 35033 ft 419 kts 186°
2026-05-07 22:36 29.41679 -98.44638 35033 ft 419 kts 186°
2026-05-07 22:36 29.35858 -98.44243 35034 ft 418 kts 186°
2026-05-07 22:37 29.30043 -98.43867 35034 ft 418 kts 186°
2026-05-07 22:37 29.24228 -98.43494 34998 ft 419 kts 186°
2026-05-07 22:38 29.19389 -98.43183 34987 ft 419 kts 186°
2026-05-07 22:38 29.12614 -98.42745 34987 ft 419 kts 186°
2026-05-07 22:39 29.07726 -98.42428 34983 ft 419 kts 186°
2026-05-07 22:39 29.01900 -98.42051 34984 ft 419 kts 186°
2026-05-07 22:40 28.96078 -98.41676 34967 ft 419 kts 186°
2026-05-07 22:40 28.90290 -98.41303 34973 ft 419 kts 186°
2026-05-07 22:41 28.84457 -98.40928 34970 ft 419 kts 186°
2026-05-07 22:41 28.78629 -98.40553 34968 ft 419 kts 186°
2026-05-07 22:42 28.72801 -98.40178 34963 ft 419 kts 186°
2026-05-07 22:42 28.66974 -98.39804 34958 ft 419 kts 186°
2026-05-07 22:43 28.64356 -98.39636 34963 ft 420 kts 186°
2026-05-07 22:45 28.60507 -98.39390 34959 ft 420 kts 186°
2026-05-07 22:45 28.56561 -98.39138 34958 ft 420 kts 186°
2026-05-07 22:46 28.50714 -98.38764 34950 ft 420 kts 186°
2026-05-07 22:46 28.44879 -98.38390 34952 ft 420 kts 186°
2026-05-07 22:47 28.41203 -98.38155 34955 ft 419 kts 186°
2026-05-07 22:47 28.35367 -98.37785 34948 ft 422 kts 185°
2026-05-07 22:48 28.31018 -98.37510 34952 ft 423 kts 185°
2026-05-07 22:48 28.26689 -98.37234 34941 ft 423 kts 185°
2026-05-07 22:49 28.23921 -98.37056 34947 ft 423 kts 185°
2026-05-07 22:49 28.22282 -98.36952 34935 ft 423 kts 185°
2026-05-07 22:50 28.19293 -98.36761 34942 ft 422 kts 185°
2026-05-07 22:50 28.15451 -98.36516 34938 ft 422 kts 185°
2026-05-07 22:51 28.14043 -98.36427 34946 ft 422 kts 185°
2026-05-07 22:51 28.08175 -98.36055 34943 ft 423 kts 185°
2026-05-07 22:52 28.02289 -98.35684 34951 ft 424 kts 185°
2026-05-07 22:52 27.96388 -98.35309 34955 ft 424 kts 185°
2026-05-07 22:53 27.90589 -98.34942 34968 ft 424 kts 185°
2026-05-07 22:53 27.84696 -98.34570 34968 ft 424 kts 185°
2026-05-07 22:54 27.79223 -98.34224 34965 ft 424 kts 185°
2026-05-07 22:55 27.75526 -98.33991 34965 ft 425 kts 185°
2026-05-07 22:55 27.70433 -98.33670 34967 ft 425 kts 185°
2026-05-07 22:56 27.64541 -98.33299 34969 ft 424 kts 185°
2026-05-07 22:56 27.58640 -98.32928 34971 ft 424 kts 185°
2026-05-07 22:57 27.52741 -98.32558 34976 ft 424 kts 185°
2026-05-07 22:57 27.46839 -98.32189 34972 ft 424 kts 185°
2026-05-07 22:58 27.40945 -98.31819 34959 ft 424 kts 185°
2026-05-07 22:58 27.35052 -98.31449 34960 ft 424 kts 185°
2026-05-07 22:59 27.29158 -98.31081 34959 ft 424 kts 185°
2026-05-07 22:59 27.23266 -98.30713 34960 ft 424 kts 185°
2026-05-07 23:00 27.17366 -98.30346 34958 ft 426 kts 185°
2026-05-07 23:00 27.11446 -98.29978 34959 ft 426 kts 185°
2026-05-07 23:01 27.05525 -98.29609 34958 ft 426 kts 185°
2026-05-07 23:01 26.99605 -98.29240 34953 ft 426 kts 185°
2026-05-07 23:02 26.96194 -98.29028 34950 ft 426 kts 185°
2026-05-07 23:02 26.90270 -98.28660 34944 ft 426 kts 184°
2026-05-07 23:03 26.84332 -98.28292 34941 ft 427 kts 184°
2026-05-07 23:03 26.78395 -98.27924 34942 ft 427 kts 184°
2026-05-07 23:04 26.72450 -98.27556 34938 ft 427 kts 184°
2026-05-07 23:04 26.66508 -98.27188 34937 ft 427 kts 184°
2026-05-07 23:05 26.60570 -98.26821 34930 ft 428 kts 184°
2026-05-07 23:05 26.54624 -98.26454 34934 ft 428 kts 184°
2026-05-07 23:06 26.48676 -98.26088 34933 ft 428 kts 184°
2026-05-07 23:06 26.42765 -98.25724 34933 ft 428 kts 184°
2026-05-07 23:07 26.36814 -98.25358 34932 ft 428 kts 184°
2026-05-07 23:07 26.30866 -98.24993 34925 ft 427 kts 184°
2026-05-07 23:08 26.24935 -98.24628 34933 ft 427 kts 184°
2026-05-07 23:08 26.19011 -98.24265 34934 ft 426 kts 184°
2026-05-07 23:09 26.13086 -98.23903 34934 ft 426 kts 184°
2026-05-07 23:09 26.07170 -98.23541 34933 ft 426 kts 184°
2026-05-07 23:10 26.01244 -98.23173 34901 ft 427 kts 183°
2026-05-07 23:10 25.95311 -98.22636 34915 ft 428 kts 182°
2026-05-07 23:11 25.89419 -98.22009 34914 ft 428 kts 181°
2026-05-07 23:11 25.83489 -98.21379 34909 ft 428 kts 182°
2026-05-07 23:12 25.77556 -98.20766 34899 ft 428 kts 182°
2026-05-07 23:12 25.71631 -98.20163 34878 ft 428 kts 182°
2026-05-07 23:13 25.65687 -98.19561 34879 ft 429 kts 181°
2026-05-07 23:13 25.59731 -98.18957 34882 ft 430 kts 182°
2026-05-07 23:14 25.53771 -98.18351 34880 ft 430 kts 182°
2026-05-07 23:14 25.47810 -98.17745 34873 ft 430 kts 182°
2026-05-07 23:15 25.41891 -98.17146 34872 ft 430 kts 182°
2026-05-07 23:15 25.35930 -98.16543 34868 ft 431 kts 181°
2026-05-07 23:16 25.29944 -98.15939 34871 ft 432 kts 181°
2026-05-07 23:16 25.23961 -98.15334 34863 ft 432 kts 181°
2026-05-07 23:17 25.17974 -98.14732 34864 ft 431 kts 181°
2026-05-07 23:17 25.11989 -98.14134 34854 ft 431 kts 181°
2026-05-07 23:18 25.06002 -98.13537 34857 ft 432 kts 181°
2026-05-07 23:18 25.00003 -98.12939 34854 ft 433 kts 181°
2026-05-07 23:19 24.94003 -98.12341 34853 ft 433 kts 181°
2026-05-07 23:19 24.88043 -98.11743 34848 ft 433 kts 181°
2026-05-07 23:20 24.82038 -98.11139 34848 ft 433 kts 181°
2026-05-07 23:20 24.76034 -98.10536 34844 ft 433 kts 181°
2026-05-07 23:21 24.70019 -98.09933 34846 ft 434 kts 181°
2026-05-07 23:21 24.63998 -98.09329 34844 ft 434 kts 181°
2026-05-07 23:22 24.57985 -98.08727 34846 ft 434 kts 181°
2026-05-07 23:22 24.55012 -98.08430 34846 ft 434 kts 181°
2026-05-07 23:23 24.48996 -98.07828 34846 ft 434 kts 181°
2026-05-07 23:23 24.42982 -98.07227 34849 ft 434 kts 181°
2026-05-07 23:24 24.37009 -98.06631 34848 ft 434 kts 181°
2026-05-07 23:24 24.31004 -98.06033 34849 ft 434 kts 181°
2026-05-07 23:25 24.24990 -98.05435 34845 ft 433 kts 181°
2026-05-07 23:25 24.18982 -98.04838 34846 ft 433 kts 181°
2026-05-07 23:26 24.13985 -98.04344 34843 ft 434 kts 180°
2026-05-07 23:26 24.07951 -98.03747 34850 ft 435 kts 180°
2026-05-07 23:27 23.98893 -98.02850 34849 ft 435 kts 180°
2026-05-07 23:27 23.92865 -98.02254 34849 ft 435 kts 180°
2026-05-07 23:28 23.86835 -98.01659 34847 ft 435 kts 180°
2026-05-07 23:28 23.80798 -98.01065 34844 ft 436 kts 180°
2026-05-07 23:29 23.74783 -98.00473 34844 ft 437 kts 180°
2026-05-07 23:29 23.68728 -97.99876 34844 ft 437 kts 180°
2026-05-07 23:30 23.62667 -97.99280 34845 ft 437 kts 180°
2026-05-07 23:30 23.56612 -97.98685 34843 ft 437 kts 180°
2026-05-07 23:31 23.50554 -97.98091 34852 ft 437 kts 180°
2026-05-07 23:31 23.44485 -97.97496 34851 ft 438 kts 180°
2026-05-07 23:32 23.38414 -97.96901 34851 ft 438 kts 180°
2026-05-07 23:32 23.32385 -97.96310 34852 ft 437 kts 180°
2026-05-07 23:33 23.26317 -97.95717 34850 ft 437 kts 180°
2026-05-07 23:33 23.20257 -97.95127 34848 ft 437 kts 180°
2026-05-07 23:34 23.14196 -97.94535 34847 ft 437 kts 180°
2026-05-07 23:34 23.08144 -97.93943 34848 ft 437 kts 180°
2026-05-07 23:35 23.02086 -97.93352 34844 ft 437 kts 180°
2026-05-07 23:35 22.96070 -97.92766 34842 ft 437 kts 180°
2026-05-07 23:36 22.90016 -97.92177 34830 ft 437 kts 180°
2026-05-07 23:36 22.83957 -97.91589 34840 ft 437 kts 180°
2026-05-07 23:37 22.77898 -97.91002 34837 ft 437 kts 180°
2026-05-07 23:37 22.71838 -97.90417 34837 ft 437 kts 180°
2026-05-07 23:38 22.65785 -97.89832 34837 ft 437 kts 180°
2026-05-07 23:38 22.59729 -97.89247 34834 ft 437 kts 180°
2026-05-07 23:39 22.53668 -97.88662 34834 ft 437 kts 179°
2026-05-07 23:39 22.47605 -97.88077 34832 ft 437 kts 179°
2026-05-07 23:40 22.41545 -97.87493 34833 ft 437 kts 179°
2026-05-07 23:40 22.35521 -97.86913 34832 ft 437 kts 179°
2026-05-07 23:41 22.29459 -97.86406 34829 ft 434 kts 185°
2026-05-07 23:41 22.23438 -97.86601 34832 ft 432 kts 186°
2026-05-07 23:42 22.17433 -97.86956 34829 ft 432 kts 187°
2026-05-07 23:42 22.11427 -97.87346 34832 ft 432 kts 187°
2026-05-07 23:43 22.05430 -97.87726 34831 ft 432 kts 187°
2026-05-07 23:43 21.99416 -97.88098 34826 ft 432 kts 187°
2026-05-07 23:44 21.93406 -97.88467 34821 ft 432 kts 187°
2026-05-07 23:44 21.87397 -97.88835 34824 ft 433 kts 187°
2026-05-07 23:45 21.81426 -97.89212 34824 ft 433 kts 187°
2026-05-07 23:45 21.75375 -97.89591 34821 ft 433 kts 187°
2026-05-07 23:46 21.69559 -97.89949 34815 ft 433 kts 187°
2026-05-07 23:46 21.63545 -97.90316 34814 ft 433 kts 187°
2026-05-07 23:47 21.57760 -97.90669 34822 ft 434 kts 187°
2026-05-07 23:47 21.51722 -97.91038 34824 ft 435 kts 187°
2026-05-07 23:48 21.45687 -97.91487 34823 ft 433 kts 192°
2026-05-07 23:48 21.39745 -97.92522 34823 ft 432 kts 193°
2026-05-07 23:49 21.33820 -97.93633 34821 ft 432 kts 193°
2026-05-07 23:49 21.27892 -97.94754 34822 ft 432 kts 193°
2026-05-07 23:50 21.21973 -97.95874 34821 ft 432 kts 193°
2026-05-07 23:50 21.16051 -97.96995 34823 ft 432 kts 193°
2026-05-07 23:51 21.10136 -97.98114 34821 ft 431 kts 193°
2026-05-07 23:51 21.04275 -97.99222 34818 ft 430 kts 193°
2026-05-07 23:52 20.98372 -98.00332 34821 ft 430 kts 193°
2026-05-07 23:52 20.92477 -98.01446 34822 ft 431 kts 193°
2026-05-07 23:53 20.86565 -98.02563 34824 ft 431 kts 193°
2026-05-07 23:53 20.80649 -98.03679 34830 ft 432 kts 193°
2026-05-07 23:54 20.74731 -98.04793 34840 ft 432 kts 193°
2026-05-07 23:54 20.68805 -98.05908 34839 ft 432 kts 193°
2026-05-07 23:55 20.62884 -98.07021 34865 ft 432 kts 193°
2026-05-07 23:55 20.56999 -98.08125 34862 ft 432 kts 192°
2026-05-07 23:56 20.51087 -98.09235 34895 ft 431 kts 192°
2026-05-07 23:56 20.45173 -98.10344 34894 ft 431 kts 192°
2026-05-07 23:57 20.39267 -98.11450 34925 ft 431 kts 192°
2026-05-07 23:57 20.33361 -98.12557 34922 ft 430 kts 192°
2026-05-07 23:58 20.27459 -98.13663 34947 ft 431 kts 192°
2026-05-07 23:58 20.21542 -98.14769 34960 ft 431 kts 192°
2026-05-07 23:59 20.15628 -98.15873 34960 ft 432 kts 192°
2026-05-07 23:59 20.09748 -98.17147 34991 ft 430 kts 200°
2026-05-08 00:00 20.07013 -98.18389 34993 ft 427 kts 211°
2026-05-08 00:00 20.04591 -98.20193 35028 ft 426 kts 222°
2026-05-08 00:00 20.02557 -98.22497 34829 ft 429 kts 233°
2026-05-08 00:00 20.01004 -98.25217 34087 ft 435 kts 245°
2026-05-08 00:01 20.00016 -98.28280 32919 ft 441 kts 254°
2026-05-08 00:01 19.99339 -98.31483 31581 ft 446 kts 256°
2026-05-08 00:01 19.98721 -98.34695 30275 ft 451 kts 256°
2026-05-08 00:01 19.98089 -98.37966 29068 ft 450 kts 256°
2026-05-08 00:02 19.97457 -98.41189 28383 ft 440 kts 256°
2026-05-08 00:02 19.96832 -98.44339 28083 ft 429 kts 256°
2026-05-08 00:02 19.96218 -98.47403 27826 ft 420 kts 256°
2026-05-08 00:02 19.95608 -98.50429 27566 ft 418 kts 256°
2026-05-08 00:03 19.94995 -98.53453 27320 ft 418 kts 256°
2026-05-08 00:03 19.94383 -98.56469 27094 ft 417 kts 256°
2026-05-08 00:03 19.93771 -98.59479 27032 ft 416 kts 256°
2026-05-08 00:03 19.93160 -98.62484 27029 ft 416 kts 256°
2026-05-08 00:04 19.92549 -98.65484 27015 ft 416 kts 256°
2026-05-08 00:04 19.91936 -98.68489 27017 ft 416 kts 256°
2026-05-08 00:04 19.91324 -98.71492 27043 ft 416 kts 256°
2026-05-08 00:04 19.90789 -98.74520 27004 ft 418 kts 259°
2026-05-08 00:05 19.90404 -98.77583 26430 ft 418 kts 260°
2026-05-08 00:05 19.90066 -98.80647 25891 ft 416 kts 259°
2026-05-08 00:05 19.89741 -98.83640 25427 ft 412 kts 261°
2026-05-08 00:05 19.89412 -98.86651 24962 ft 408 kts 260°
2026-05-08 00:06 19.89132 -98.89640 24497 ft 406 kts 265°
2026-05-08 00:06 19.89184 -98.92639 24029 ft 405 kts 269°
2026-05-08 00:06 19.89372 -98.95622 23513 ft 403 kts 270°
2026-05-08 00:06 19.89581 -98.98574 22998 ft 399 kts 271°
2026-05-08 00:07 19.89788 -99.01507 22533 ft 395 kts 271°
2026-05-08 00:07 19.89988 -99.04408 22058 ft 393 kts 270°
2026-05-08 00:07 19.90185 -99.07291 21579 ft 389 kts 270°
2026-05-08 00:07 19.90377 -99.10151 21102 ft 386 kts 271°
2026-05-08 00:08 19.90568 -99.12986 20626 ft 382 kts 271°
2026-05-08 00:08 19.90755 -99.15794 20161 ft 380 kts 271°
2026-05-08 00:08 19.90942 -99.18578 19786 ft 373 kts 271°
2026-05-08 00:08 19.91124 -99.21296 19465 ft 365 kts 271°
2026-05-08 00:09 19.91301 -99.23963 19032 ft 360 kts 270°
2026-05-08 00:09 19.91475 -99.26613 18544 ft 358 kts 271°
2026-05-08 00:09 19.91494 -99.29197 18060 ft 351 kts 259°
2026-05-08 00:09 19.91024 -99.31688 17785 ft 338 kts 253°
2026-05-08 00:10 19.90249 -99.34025 17238 ft 334 kts 242°
2026-05-08 00:10 19.88988 -99.36072 16680 ft 330 kts 226°
2026-05-08 00:10 19.87228 -99.37594 16138 ft 325 kts 207°
2026-05-08 00:10 19.85136 -99.38371 15740 ft 315 kts 188°
2026-05-08 00:11 19.82989 -99.38288 15496 ft 306 kts 167°
2026-05-08 00:11 19.80983 -99.37606 15186 ft 301 kts 160°
2026-05-08 00:11 19.78998 -99.36804 14763 ft 301 kts 160°
2026-05-08 00:11 19.77066 -99.36008 14298 ft 301 kts 159°
2026-05-08 00:12 19.75109 -99.35209 13897 ft 301 kts 160°
2026-05-08 00:12 19.73160 -99.34420 13477 ft 298 kts 159°
2026-05-08 00:12 19.71229 -99.33643 13095 ft 295 kts 159°
2026-05-08 00:12 19.69966 -99.33136 12916 ft 289 kts 159°
2026-05-08 00:13 19.68147 -99.32409 12790 ft 271 kts 159°
2026-05-08 00:13 19.66424 -99.31720 12790 ft 261 kts 159°
2026-05-08 00:13 19.64726 -99.31041 12808 ft 261 kts 159°
2026-05-08 00:13 19.63023 -99.30360 12825 ft 261 kts 159°
2026-05-08 00:14 19.61398 -99.29712 12842 ft 261 kts 158°
2026-05-08 00:14 19.59748 -99.28928 12858 ft 260 kts 148°
2026-05-08 00:14 19.58370 -99.27966 12875 ft 260 kts 143°
2026-05-08 00:14 19.56886 -99.26818 12890 ft 259 kts 143°
2026-05-08 00:15 19.55438 -99.25678 12899 ft 259 kts 144°
2026-05-08 00:15 19.53989 -99.24539 12916 ft 259 kts 144°
2026-05-08 00:15 19.52485 -99.23504 12619 ft 259 kts 154°
2026-05-08 00:15 19.50848 -99.22744 12252 ft 255 kts 159°
2026-05-08 00:16 19.49203 -99.22069 11932 ft 248 kts 159°
2026-05-08 00:16 19.47641 -99.21440 11693 ft 233 kts 159°
2026-05-08 00:16 19.46146 -99.20837 11313 ft 228 kts 159°
2026-05-08 00:16 19.44690 -99.20247 10929 ft 226 kts 159°
2026-05-08 00:17 19.43220 -99.19649 10419 ft 227 kts 158°
2026-05-08 00:17 19.41745 -99.19049 9854 ft 228 kts 159°
2026-05-08 00:17 19.40270 -99.18448 9397 ft 225 kts 156°
2026-05-08 00:17 19.39007 -99.17555 9137 ft 212 kts 122°
2026-05-08 00:18 19.38666 -99.16142 9016 ft 197 kts 82°
2026-05-08 00:18 19.39089 -99.14827 8990 ft 182 kts 59°
2026-05-08 00:18 19.39776 -99.13770 8783 ft 168 kts 56°
2026-05-08 00:18 19.40382 -99.12733 8546 ft 163 kts 61°
2026-05-08 00:19 19.40947 -99.11708 8202 ft 160 kts 59°
2026-05-08 00:19 19.41536 -99.10683 7937 ft 167 kts 62°
2026-05-08 00:19 19.42129 -99.09628 7683 ft 165 kts 63°
2026-05-08 00:19 19.42707 -99.08587 7405 ft 165 kts 63°
2026-05-08 00:20 19.43275 -99.07559 7309 ft 153 kts 57°
2026-05-08 00:20 19.43705 -99.06791 7306 ft 88 kts 59°
2026-05-08 00:20 19.43959 -99.06342 7304 ft 45 kts 58°
2026-05-08 00:20 19.44117 -99.06207 7306 ft 26 kts 24°
2026-05-08 00:21 19.44283 -99.06158 7306 ft 23 kts
2026-05-08 00:21 19.44396 -99.06211 7306 ft 16 kts 298°
2026-05-08 00:21 19.44419 -99.06318 7306 ft 14 kts 253°
2026-05-08 00:21 19.44379 -99.06404 7306 ft 12 kts 237°
2026-05-08 00:22 19.44338 -99.06476 7306 ft 11 kts 240°
2026-05-08 00:22 19.44301 -99.06540 7306 ft 12 kts 238°
2026-05-08 00:22 19.44255 -99.06620 7306 ft 12 kts 240°
2026-05-08 00:22 19.44215 -99.06691 7306 ft 10 kts 238°
2026-05-08 00:23 19.44176 -99.06760 7306 ft 11 kts 239°
2026-05-08 00:23 19.44139 -99.06827 7306 ft 10 kts 238°
2026-05-08 00:23 19.44104 -99.06889 7306 ft 10 kts 239°
2026-05-08 00:23 19.44071 -99.06947 7306 ft 9 kts 239°
2026-05-08 00:24 19.44031 -99.07020 7306 ft 11 kts 239°
2026-05-08 00:24 19.43992 -99.07089 7306 ft 13 kts 239°
2026-05-08 00:24 19.43942 -99.07182 7306 ft 15 kts 239°
2026-05-08 00:24 19.43886 -99.07278 7306 ft 15 kts 238°
2026-05-08 00:25 19.43834 -99.07368 7306 ft 15 kts 239°
2026-05-08 00:25 19.43783 -99.07460 7306 ft 14 kts 239°
2026-05-08 00:25 19.43738 -99.07540 7306 ft 12 kts 239°
2026-05-08 00:25 19.43698 -99.07611 7306 ft 11 kts 239°
2026-05-08 00:26 19.43663 -99.07673 7306 ft 9 kts 239°
2026-05-08 00:26 19.43633 -99.07726 7306 ft 8 kts 239°
2026-05-08 00:26 19.43609 -99.07771 7306 ft 6 kts 248°
2026-05-08 00:26 19.43619 -99.07801 7306 ft 4 kts 312°
2026-05-08 00:27 19.43636 -99.07814 7306 ft 2 kts 327°
2026-05-08 00:27 19.43645 -99.07816 7306 ft 1 kts 358°
2026-05-08 00:27 19.43658 -99.07810 7306 ft 3 kts 32°
2026-05-08 00:27 19.43675 -99.07794 7306 ft 3 kts 43°
2026-05-08 00:28 19.43682 -99.07786 7306 ft 0 kts 43°
2026-05-08 00:28 19.43683 -99.07786 7306 ft 0 kts 43°
2026-05-08 00:41 19.43693 -99.07776 7306 ft 0 kts 43°